Weather History for Franklin, PA

Change the Weather History Date:

Wednesday, February 15, 2012

  Actual Average Record
Temperature  
Mean Temperature 30 °F -  
Max Temperature 33 °F 35 °F 63 °F (1954)
Min Temperature 28 °F 16 °F -12 °F (1934)
Degree Days  
Heating Degree Days 34    
Moisture  
Dew Point 27 °F    
Average Humidity 84    
Maximum Humidity 93    
Minimum Humidity 70    
Precipitation  
Precipitation 0.01 in - - ()
Sea Level Pressure  
Sea Level Pressure 30.16 in    
Wind  
Wind Speed 7 mph (WSW)    
Max Wind Speed 10 mph    
Max Gust Speed -    
Visibility 8 miles    
Events      
Averages and records for this station are not official NWS values.
T = Trace of Precipitation, MM = Missing Value Source: NWS Daily Summary

Daily Weather History Graph

Daily Weather History Graph

Search for Another Location

Airport:

Trip Planner

Search our weather history database for the weather conditions in past years. The results will help you decide how hot, cold, wet, or windy it might be!

Date:

Astronomy

Feb. 15, 2012 Rise Set
Actual Time 7:15 AM EST 5:52 PM EST
Civil Twilight 6:46 AM EST 6:21 PM EST
Nautical Twilight 6:14 AM EST 6:53 PM EST
Astronomical Twilight 5:42 AM EST 7:25 PM EST
Moon 2:08 AM EST (2/15) 11:44 AM EST (2/15)
Length of Visible Light 11h 34m
Length of Day
10h 37m
Last Quarter, 39% of the Moon is Illuminated
Feb 15
Last Quarter
Feb 21
New
Feb 29
First Quarter
Mar 8
Full
Mar 14
Last Quarter

Hourly Weather History & Observations

Time (EST) Temp. Windchill Dew Point Humidity Pressure Visibility Wind Dir Wind Speed Gust Speed Precip Events Conditions
12:15 AM 33.8 °F 27.7 °F 30.2 °F 87% 30.00 in 5.0 mi West 6.9 mph - N/A   Overcast
12:35 AM 33.8 °F 27.7 °F 30.2 °F 87% 30.01 in 4.0 mi West 6.9 mph - N/A   Overcast
12:55 AM 33.8 °F 27.7 °F 30.2 °F 87% 30.02 in 5.0 mi WSW 6.9 mph - N/A   Overcast
1:15 AM 33.8 °F 27.0 °F 30.2 °F 87% 30.02 in 3.0 mi West 8.1 mph - N/A   Overcast
1:35 AM 32.0 °F 24.8 °F 30.2 °F 93% 30.03 in 3.0 mi West 8.1 mph - N/A   Overcast
1:55 AM 32.0 °F 24.8 °F 30.2 °F 93% 30.04 in 5.0 mi West 8.1 mph - N/A   Overcast
2:15 AM 32.0 °F 24.2 °F 30.2 °F 93% 30.05 in 5.0 mi West 9.2 mph - N/A   Overcast
2:35 AM 32.0 °F 26.4 °F 30.2 °F 93% 30.05 in 5.0 mi West 5.8 mph - N/A   Overcast
2:55 AM 32.0 °F 26.4 °F 28.4 °F 87% 30.05 in 5.0 mi WNW 5.8 mph - N/A   Overcast
3:15 AM 32.0 °F 23.6 °F 28.4 °F 87% 30.06 in 5.0 mi West 10.4 mph - N/A   Overcast
3:35 AM 32.0 °F 24.2 °F 28.4 °F 87% 30.07 in 5.0 mi West 9.2 mph - N/A   Overcast
3:55 AM 30.2 °F 23.4 °F 28.4 °F 93% 30.08 in 7.0 mi West 6.9 mph - N/A   Overcast
4:15 AM 30.2 °F 23.4 °F 28.4 °F 93% 30.09 in 5.0 mi WNW 6.9 mph - N/A   Overcast
4:35 AM 30.2 °F 25.4 °F 28.4 °F 93% 30.09 in 3.0 mi WNW 4.6 mph - N/A   Overcast
4:55 AM 30.2 °F 26.7 °F 28.4 °F 93% 30.10 in 5.0 mi West 3.5 mph - N/A   Overcast
5:15 AM 30.2 °F 22.6 °F 28.4 °F 93% 30.11 in 8.0 mi West 8.1 mph - N/A   Overcast
5:35 AM 30.2 °F 23.4 °F 28.4 °F 93% 30.12 in 8.0 mi West 6.9 mph - N/A   Overcast
5:55 AM 30.2 °F 23.4 °F 28.4 °F 93% 30.13 in 8.0 mi WNW 6.9 mph - N/A   Overcast
6:15 AM 30.2 °F 24.3 °F 28.4 °F 93% 30.13 in 6.0 mi WNW 5.8 mph - N/A   Overcast
6:35 AM 30.2 °F 23.4 °F 26.6 °F 86% 30.14 in 9.0 mi West 6.9 mph - N/A   Overcast
6:55 AM 30.2 °F 23.4 °F 26.6 °F 86% 30.15 in 10.0 mi WNW 6.9 mph - N/A   Overcast
7:15 AM 30.2 °F 23.4 °F 26.6 °F 86% 30.17 in 10.0 mi West 6.9 mph - N/A   Overcast
7:55 AM 30.2 °F 24.3 °F 26.6 °F 86% 30.19 in 9.0 mi West 5.8 mph - N/A   Overcast
8:15 AM 30.2 °F 25.4 °F 26.6 °F 86% 30.20 in 10.0 mi West 4.6 mph - N/A   Overcast
8:35 AM 30.2 °F 23.4 °F 26.6 °F 86% 30.21 in 10.0 mi West 6.9 mph - N/A   Overcast
8:55 AM 30.2 °F 25.4 °F 26.6 °F 86% 30.21 in 10.0 mi West 4.6 mph - N/A   Overcast
9:35 AM 30.2 °F 25.4 °F 26.6 °F 86% 30.22 in 9.0 mi WSW 4.6 mph - N/A   Overcast
9:55 AM 30.2 °F 24.3 °F 28.4 °F 93% 30.23 in 9.0 mi WSW 5.8 mph - N/A   Overcast
10:15 AM 30.2 °F 22.6 °F 26.6 °F 86% 30.23 in 10.0 mi West 8.1 mph - N/A   Overcast
10:35 AM 30.2 °F 23.4 °F 26.6 °F 86% 30.24 in 10.0 mi West 6.9 mph - N/A   Overcast
10:55 AM 32.0 °F 26.4 °F 26.6 °F 80% 30.24 in 10.0 mi West 5.8 mph - N/A   Overcast
11:15 AM 32.0 °F 24.2 °F 24.8 °F 75% 30.25 in 10.0 mi West 9.2 mph - N/A   Overcast
11:35 AM 32.0 °F 26.4 °F 24.8 °F 75% 30.25 in 10.0 mi WSW 5.8 mph - N/A   Overcast
11:55 AM 32.0 °F 24.8 °F 24.8 °F 75% 30.24 in 10.0 mi West 8.1 mph - N/A   Overcast
12:15 PM 32.0 °F 28.7 °F 26.6 °F 80% 30.23 in 10.0 mi WSW 3.5 mph - N/A   Overcast
12:35 PM 32.0 °F 25.6 °F 26.6 °F 80% 30.23 in 10.0 mi WSW 6.9 mph - N/A   Overcast
12:55 PM 32.0 °F 26.4 °F 26.6 °F 80% 30.22 in 10.0 mi WSW 5.8 mph - N/A   Overcast
1:15 PM 32.0 °F 24.2 °F 24.8 °F 75% 30.22 in 10.0 mi SW 9.2 mph - N/A   Overcast
1:35 PM 32.0 °F 24.8 °F 26.6 °F 80% 30.21 in 10.0 mi South 8.1 mph - N/A   Overcast
1:55 PM 32.0 °F 24.2 °F 24.8 °F 75% 30.20 in 10.0 mi South 9.2 mph - N/A   Overcast
2:15 PM 32.0 °F 28.7 °F 24.8 °F 75% 30.20 in 10.0 mi South 3.5 mph - N/A   Overcast
2:35 PM 33.8 °F 28.6 °F 24.8 °F 70% 30.20 in 10.0 mi South 5.8 mph - N/A   Overcast
2:55 PM 33.8 °F 27.0 °F 24.8 °F 70% 30.20 in 10.0 mi South 8.1 mph - N/A   Overcast
3:15 PM 33.8 °F 27.0 °F 26.6 °F 75% 30.20 in 10.0 mi SW 8.1 mph - N/A   Scattered Clouds
3:55 PM 33.8 °F 26.4 °F 26.6 °F 75% 30.21 in 10.0 mi SSW 9.2 mph - N/A   Mostly Cloudy
4:15 PM 33.8 °F 25.8 °F 26.6 °F 75% 30.21 in 10.0 mi South 10.4 mph - N/A   Mostly Cloudy
4:35 PM 33.8 °F 27.7 °F 26.6 °F 75% 30.20 in 10.0 mi South 6.9 mph - N/A   Mostly Cloudy
4:55 PM 33.8 °F 27.0 °F 26.6 °F 75% 30.21 in 10.0 mi South 8.1 mph - N/A   Mostly Cloudy
5:15 PM 33.8 °F 26.4 °F 26.6 °F 75% 30.22 in 10.0 mi South 9.2 mph - N/A   Overcast
5:35 PM 33.8 °F 29.6 °F 26.6 °F 75% 30.22 in 10.0 mi SSE 4.6 mph - N/A   Scattered Clouds
5:55 PM 33.8 °F 29.6 °F 26.6 °F 75% 30.22 in 10.0 mi SSE 4.6 mph - N/A   Clear
6:15 PM 32.0 °F 27.5 °F 26.6 °F 80% 30.22 in 10.0 mi SE 4.6 mph - N/A   Clear
6:35 PM 30.2 °F 24.3 °F 24.8 °F 80% 30.21 in 10.0 mi SE 5.8 mph - N/A   Clear
7:55 PM 30.2 °F 23.4 °F 26.6 °F 86% 30.20 in 10.0 mi SE 6.9 mph - N/A   Partly Cloudy
8:15 PM 30.2 °F 24.3 °F 26.6 °F 86% 30.21 in 10.0 mi SSE 5.8 mph - N/A   Clear
8:35 PM 30.2 °F 24.3 °F 24.8 °F 80% 30.20 in 10.0 mi SE 5.8 mph - N/A   Clear
8:55 PM 30.2 °F 24.3 °F 24.8 °F 80% 30.20 in 10.0 mi SE 5.8 mph - N/A   Clear
9:15 PM 28.4 °F 23.3 °F 24.8 °F 86% 30.19 in 10.0 mi SE 4.6 mph - N/A   Clear
9:35 PM 28.4 °F 24.6 °F 24.8 °F 86% 30.19 in 10.0 mi ESE 3.5 mph - N/A   Mostly Cloudy
9:55 PM 30.2 °F 25.4 °F 26.6 °F 86% 30.20 in 10.0 mi SE 4.6 mph - N/A   Overcast
10:15 PM 30.2 °F 23.4 °F 26.6 °F 86% 30.20 in 10.0 mi SSE 6.9 mph - N/A   Overcast
10:35 PM 32.0 °F 26.4 °F 28.4 °F 87% 30.19 in 10.0 mi SE 5.8 mph - N/A   Overcast
10:55 PM 32.0 °F 25.6 °F 26.6 °F 80% 30.19 in 10.0 mi SE 6.9 mph - N/A   Overcast
11:15 PM 32.0 °F 26.4 °F 28.4 °F 87% 30.18 in 10.0 mi ESE 5.8 mph - N/A   Overcast
11:35 PM 32.0 °F 25.6 °F 28.4 °F 87% 30.16 in 10.0 mi SE 6.9 mph - N/A   Overcast
11:55 PM 32.0 °F 27.5 °F 26.6 °F 80% 30.16 in 10.0 mi East 4.6 mph - N/A   Overcast